Home > Weather > Egersund > Past weeks

Flag for Norway Past Weather in Egersund, Norway — Yesterday and Last 2 Weeks

Now
55 °F

Cool.


Feels Like: 55 °F
Forecast: 53 / 60 °F
Wind: 2 mph from Southwest

Location: Ualand-Bjuland

Current Time: Jun 27, 2016 at 11:41:15 AM

Latest Report: Jun 27, 2016 at 10:00 AM


Visibility: N/A

Pressure: 29.74 "Hg

Humidity: 91%

Dew Point: 53 °F

Location of EgersundLocation

Past Weather in Egersund — Graph

°F

Egersund Temperature Yesterday

Maximum temperature yesterday: 60 °F (at 1:00 AM)
Minimum temperature yesterday: 55 °F (at 11:00 PM)
Average temperature yesterday: 59 °F

High & Low Weather Summary for the Past Weeks

 TemperatureHumidityPressure
High73 °F (Jun 18, 3:00 PM)99% (Jun 17, 3:00 AM)30.16 "Hg (Jun 17, 3:00 AM)
Low39 °F (Jun 13, 5:00 AM)28% (Jun 13, 5:00 PM)29.50 "Hg (Jun 15, 6:00 AM)
Average58 °F80%29.82 "Hg
* Reported Jun 12 10:00 AM — Jun 27 10:00 AM, Egersund, Weather by CustomWeather, © 2016

Note: Actual official high and low records may vary slightly from our data, if they occured in-between our weather recording intervals... More about our weather records

Advertising

Egersund Weather History for the Previous 24 Hours

Scroll right to see more
 ConditionsComfort  
Time TempWeatherWind HumidityBarometerVisibility
10:00 AM
Mon, Jun 27
55 °FCool.2 mph91%29.74 "HgN/A
9:00 AM55 °FCool.3 mph89%29.74 "HgN/A
8:00 AM55 °FLight rain. Low clouds.3 mph94%29.74 "Hg12 mi
7:00 AM55 °FCool.2 mph95%29.75 "HgN/A
6:00 AM55 °FCool.2 mph94%29.76 "HgN/A
5:00 AM55 °FCool.2 mph96%29.76 "HgN/A
4:00 AM54 °FCool.2 mph95%29.76 "HgN/A
3:00 AM54 °FCool.2 mph96%29.78 "HgN/A
2:00 AM55 °FCool.2 mph96%29.79 "HgN/A
1:00 AM55 °FCool.2 mph96%29.80 "HgN/A
12:00 AM55 °FCool.2 mph96%29.80 "HgN/A
11:00 PM
Sun, Jun 26
55 °FCool.2 mph95%29.80 "HgN/A
10:00 PM56 °FCool.3 mph92%29.80 "HgN/A
9:00 PM56 °FCool.2 mph94%29.78 "HgN/A
8:00 PM57 °FLight rain. Low clouds.3 mph92%29.77 "Hg3 mi
5:00 PM59 °FCool.3 mph93%29.73 "HgN/A
4:00 PM59 °FCool.3 mph92%29.72 "HgN/A
3:00 PM60 °FCool.3 mph93%29.71 "HgN/A
2:00 PM60 °FLight rain. Low clouds.2 mph96%29.70 "Hg2 mi
1:00 PM60 °FCool.No wind94%29.69 "HgN/A
12:00 PM59 °FCool.No wind96%29.70 "HgN/A
11:00 AM59 °FCool.1 mph96%29.70 "HgN/A
Weather by CustomWeather, © 2016

See weather overviewHow to use our weather pages